Regional Weather Roundup
Issued by NWS Little Rock, AR

Home | Current Version | Previous Version | Graphics & Text | Print | Product List | Glossary On
Versions: 1 2 3 4 5 6 7 8 9 10 11 12 13 14 15 16 17 18 19 20 21 22 23 24 25 26 27 28 29 30 31 32 33 34 35 36 37 38 39 40 41 42 43 44 45 46 47 48 49 50
000
ASUS44 KLZK 261505
RWRLZK

WEATHER ROUNDUP FOR ARKANSAS
NATIONAL WEATHER SERVICE LITTLE ROCK AR
1000 AM CDT TUE MAY 26 2015

NOTE: "FAIR" INDICATES FEW OR NO CLOUDS BELOW 12,000 FEET WITH NO
SIGNIFICANT WEATHER AND/OR OBSTRUCTIONS TO VISIBILITY.

ARZ001-003-010-029-261600-
NORTHWEST ARKANSAS

CITY           SKY/WX    TMP DP  RH WIND       PRES   REMARKS
FAYETTEVILLE   CLOUDY    64  59  83 SW9       30.00R
FORT SMITH     CLOUDY    69  60  73 SW7       29.99R
HARRISON       CLOUDY    66  58  75 SW10      29.99S
BENTONVILLE    CLOUDY    64  57  77 W12       29.99S
ROGERS         CLOUDY    64  58  80 SW14      30.00R
SILOAM SPGS    CLOUDY    64  55  72 SW10      30.01S
HIGHFILL       CLOUDY    65  59  81 SW12G18   29.98S
SPRINGDALE     CLOUDY    64  59  82 SW9       30.01R
$$

ARZ004-005-016-261600-
NORTH CENTRAL ARKANSAS

CITY           SKY/WX    TMP DP  RH WIND       PRES   REMARKS
BATESVILLE     CLOUDY    70  61  73 S13       30.01R
FLIPPIN        CLOUDY    66  61  82 SW6       29.97S
MTN HOME       PTSUNNY   65  60  84 VRB6      29.98R
$$

ARZ040-041-261600-
WEST CENTRAL ARKANSAS

CITY           SKY/WX    TMP DP  RH WIND       PRES   REMARKS
MENA           CLOUDY    70  63  78 W6        30.03R
MOUNT IDA      CLOUDY    68  62  81 VRB6      30.01R
$$

ARZ009-017-025-026-028-261600-
NORTHEAST ARKANSAS

CITY           SKY/WX    TMP DP  RH WIND       PRES   REMARKS
CORNING          N/A     68  64  88 S14G22    30.00F
JONESBORO      PTSUNNY   68  62  81 SW16      30.02S
NEWPORT        CLOUDY    70  61  73 SW20      30.03R
WALNUT RIDGE   CLOUDY    70  61  73 SW16      30.01R
BLYTHEVILLE    PTSUNNY   69  63  81 SW14G23   30.04S
NW BLYTHEVILLE PTSUNNY   70  61  73 SW20G29   30.04R
$$

ARZ022-023-033-042-044-261600-
CENTRAL ARKANSAS

CITY           SKY/WX    TMP DP  RH WIND       PRES   REMARKS
LITTLE ROCK    CLOUDY    69  61  75 SW12      30.03F
N LITTLE ROCK  CLOUDY    66  63  89 SW8       30.03F
JACKSONVILLE   CLOUDY    68  62  81 SW10      30.02F
SEARCY         CLOUDY    67  62  84 SW6       30.04S
HOT SPRINGS    CLOUDY    66  61  84 SW6       30.04R
RUSSELLVILLE   MOSUNNY   69  62  78 S8        30.00F
CLINTON        CLOUDY    68  63  83 S6        30.02S
$$

ARZ036-261600-
EAST ARKANSAS

CITY           SKY/WX    TMP DP  RH WIND       PRES   REMARKS
WEST MEMPHIS   PTSUNNY   68  64  87 SW8       30.05R
$$

ARZ050-053-066-070-073-261600-
SOUTHWEST ARKANSAS

CITY           SKY/WX    TMP DP  RH WIND       PRES   REMARKS
ARKADELPHIA    CLOUDY    66  66 100 S6        30.05S FOG
CAMDEN         CLOUDY    70  63  78 CALM      30.04F
TEXARKANA      CLOUDY    66  64  93 VRB5      30.04R
EL DORADO      MOSUNNY   71  64  78 SW6       30.04F
$$

ARZ056-057-069-261600-
SOUTHEAST ARKANSAS

CITY           SKY/WX    TMP DP  RH WIND       PRES   REMARKS
PINE BLUFF     PTSUNNY   69  61  75 SW14      30.05S
STUTTGART      CLOUDY    70  61  73 SW12      30.06R
MONTICELLO     PTSUNNY   72  64  76 W7        30.06R

$$





USA.gov is the U.S. government's official web portal to all federal, state and local government web resources and services.